Location: Zapote
(9.9191°N, 84.0597°W)
Time: 10:04:49
(UTC-06:00)

deb Explorer IX - All Passes

Search period start: 27 February 2021 00:00
Search period end: 09 March 2021 00:00
Orbit: 537 x 1102 km, 38.8° (Epoch: 27 February)

Date Brightness Start Highest point End Pass type
(mag) Time Alt. Az. Time Alt. Az. Time Alt. Az.
27 Feb - 00:05:53 10° SW 00:10:09 47° SE 00:14:04 10° ENE night (unlit)
27 Feb - 01:54:12 10° WNW 01:56:48 16° NW 01:59:21 10° N night (unlit)
27 Feb - 09:07:46 10° NNW 09:12:04 22° NE 09:16:51 10° E daylight
27 Feb - 10:53:07 10° NW 10:59:13 76° SW 11:06:14 10° SE daylight
27 Feb - 12:42:57 10° WSW 12:46:38 15° SW 12:50:29 10° S daylight
27 Feb - 23:42:05 10° SW 23:46:30 48° SE 23:50:29 10° ENE night (unlit)
28 Feb - 01:30:31 10° WNW 01:33:08 16° NW 01:35:42 10° N night (unlit)
28 Feb - 08:44:11 10° N 08:48:16 21° NE 08:52:50 10° E daylight
28 Feb - 10:29:25 10° NW 10:35:22 75° SW 10:42:15 10° SE daylight
28 Feb - 12:19:16 10° WSW 12:22:46 15° SW 12:26:27 10° S daylight
28 Feb - 23:18:16 10° SW 23:22:50 49° SE 23:26:54 10° ENE night (unlit)
01 Mar - 01:06:46 10° WNW 01:09:29 16° NW 01:12:06 10° N night (unlit)
01 Mar - 08:20:36 10° N 08:24:30 20° NE 08:28:49 10° E daylight
01 Mar - 10:05:46 10° NW 10:11:32 75° SW 10:18:15 10° SE daylight
01 Mar - 11:55:37 10° WSW 11:58:55 14° SW 12:02:23 10° S daylight
01 Mar - 22:54:25 10° SW 22:59:10 51° SE 23:03:19 10° ENE night (unlit)
02 Mar - 00:43:00 10° WNW 00:45:48 17° NW 00:48:29 10° N night (unlit)
02 Mar - 07:57:03 10° N 08:00:44 19° NE 08:04:49 10° E daylight
02 Mar - 09:42:07 10° NW 09:47:42 74° SW 09:54:16 10° SE daylight
02 Mar - 11:32:02 10° WSW 11:35:04 14° SW 11:38:17 10° S daylight
02 Mar - 22:30:34 10° SW 22:35:28 52° SE 22:39:45 10° ENE night (unlit)
03 Mar - 00:19:11 10° WNW 00:22:07 17° NW 00:24:54 10° N night (unlit)
03 Mar - 07:33:29 10° N 07:36:59 18° NE 07:40:49 10° E daylight
03 Mar - 09:18:29 10° NW 09:23:53 73° SW 09:30:17 10° SE daylight
03 Mar - 11:08:28 10° WSW 11:11:15 13° SW 11:14:09 10° SSW daylight
03 Mar - 22:06:39 10° SW 22:11:46 53° SE 22:16:09 10° ENE night (unlit)
03 Mar - 23:55:21 10° W 23:58:26 18° NW 00:01:20 10° N night (unlit)
04 Mar - 07:09:57 10° N 07:13:13 18° NE 07:16:49 10° E daylight
04 Mar - 08:54:52 10° NW 09:00:05 73° SW 09:06:18 10° SE daylight
04 Mar - 10:44:58 10° WSW 10:47:25 12° SW 10:50:00 10° SSW daylight
04 Mar - 21:42:44 10° SW 21:48:03 55° SE 21:52:34 10° ENE night (unlit)
04 Mar - 23:31:28 10° W 23:34:44 18° NW 23:37:46 10° N night (unlit)
05 Mar - 06:46:24 10° N 06:49:28 17° NE 06:52:50 10° ENE daylight
05 Mar - 08:31:15 10° NW 08:36:18 72° SW 08:42:18 10° SE daylight
05 Mar - 10:21:30 10° WSW 10:23:36 12° SW 10:25:46 10° SSW daylight
05 Mar - 21:18:47 10° SW 21:24:18 56° SE 21:28:59 10° ENE night (unlit)
05 Mar - 23:07:34 10° W 23:11:01 19° NW 23:14:12 10° N night (unlit)
06 Mar - 06:22:52 10° N 06:25:45 16° NE 06:28:51 10° ENE daylight
06 Mar - 08:07:38 10° WNW 08:12:31 71° SW 08:18:20 10° SE daylight
06 Mar - 09:58:10 10° SW 09:59:47 11° SW 10:01:28 10° SSW daylight
06 Mar - 20:54:49 10° SW 21:00:32 57° SE 21:05:23 10° ENE visible
06 Mar - 22:43:38 10° W 22:47:18 20° NW 22:50:38 10° N night (unlit)
07 Mar - 05:59:19 10° N 06:02:01 15° NE 06:04:54 10° ENE daylight
07 Mar - 07:44:01 10° WNW 07:48:45 70° SW 07:54:22 10° SE daylight
07 Mar - 09:35:01 10° SW 09:35:59 10° SW 09:36:59 10° SSW daylight
07 Mar - 20:30:51 10° SW 20:36:46 58° SE 20:41:45 10° ENE visible
07 Mar - 22:19:40 10° W 22:23:33 20° NW 22:27:04 10° N night (unlit)
08 Mar - 05:35:47 10° N 05:38:17 15° NE 05:40:57 10° ENE daylight
08 Mar - 07:20:25 10° WNW 07:25:00 69° SW 07:30:25 10° SE daylight
08 Mar - 20:06:50 10° SW 20:12:58 59° SE 20:18:08 10° ENE visible
08 Mar - 21:55:41 10° W 21:59:48 21° NW 22:03:29 10° NNE night (unlit)
